Volver al catálogo

NOVASAR 1

ActivoCienciaSSO
NORAD 43619·PAYLOAD·🇬🇧 United Kingdom

Lanzado Sep 16, 2018 desde Satish Dhawan Space Centre

Loading…

Próximos Pases (próximas 24 horas)

TLE

ActualizadoSource: Space-Track

Época: Sep 14, 2026, 14:22 UTC

1 43619U 18071B   26257.59870469  .00001066  00000-0  99077-4 0  9999
2 43619  97.4919 126.1887 0002220  90.7205 269.4272 14.96329006436304

Sigue NOVASAR 1 en tiempo real con AllMySat

Download on the App Store